Weather History for Budapest Ferihegy, Hungary

Change the Weather History Date:

Thursday, October 30, 2014

  Actual Average Record
Temperature  
Mean Temperature 41 °F -  
Max Temperature 50 °F 46 °F 68 °F (2004)
Min Temperature 32 °F 33 °F 14 °F (1997)
Degree Days  
Heating Degree Days 24    
Moisture  
Dew Point 37 °F    
Average Humidity 84    
Maximum Humidity 100    
Minimum Humidity 62    
Precipitation  
Precipitation 0.00 in - - ()
Sea Level Pressure  
Sea Level Pressure 30.27 in    
Wind  
Wind Speed 2 mph ()    
Max Wind Speed 7 mph    
Max Gust Speed -    
Visibility 4.2 miles    
Events Fog    
Averages and records for this station are not official NWS values.
T = Trace of Precipitation, MM = Missing Value Source: Averaged Metar Reports

Daily Weather History Graph

Daily Weather History Graph

Search for Another Location

Airport:

Trip Planner

Search our weather history database for the weather conditions in past years. The results will help you decide how hot, cold, wet, or windy it might be!

Date:

Astronomy

Oct. 30, 2014 Rise Set
Actual Time 6:23 AM CET 4:29 PM CET
Civil Twilight 5:51 AM CET 5:01 PM CET
Nautical Twilight 5:15 AM CET 5:37 PM CET
Astronomical Twilight 4:39 AM CET 6:12 PM CET
Moon 12:17 PM CET 10:24 PM CET
Length of Visible Light 11h 10m
Length of Day
10h 06m
Waxing Crescent, 43% of the Moon is Illuminated
Oct 30
Waxing Crescent
Oct 31
First Quarter
Nov 6
Full
Nov 14
Last Quarter
Nov 22
New

Hourly Weather History & Observations

Time (CET) Temp. Windchill Dew Point Humidity Pressure Visibility Wind Dir Wind Speed Gust Speed Precip Events Conditions
12:00 AM 33.8 °F - 32.0 °F 93% 30.21 in 5.0 mi Variable 2.3 mph - N/A   Scattered Clouds
12:30 AM 33.8 °F - 33.8 °F 100% 30.21 in 5.0 mi Variable 2.3 mph - N/A   Mostly Cloudy
1:00 AM 33.8 °F - 32.0 °F 93% 30.21 in 5.0 mi Variable 1.2 mph - N/A   Mostly Cloudy
1:30 AM 37.4 °F - 35.6 °F 93% 30.21 in 5.0 mi Calm Calm - N/A   Mostly Cloudy
2:00 AM 37.4 °F - 35.6 °F 93% 30.21 in 3.1 mi Calm Calm - N/A   Overcast
2:30 AM 37.4 °F - 35.6 °F 93% 30.24 in 3.1 mi Variable 2.3 mph - N/A   Overcast
3:00 AM 39.2 °F - 37.4 °F 93% 30.24 in 3.1 mi Variable 2.3 mph - N/A   Overcast
3:30 AM 39.2 °F - 37.4 °F 93% 30.24 in 4.3 mi Variable 1.2 mph - N/A   Overcast
4:00 AM 39.2 °F - 37.4 °F 93% 30.24 in 4.3 mi Variable 2.3 mph - N/A   Overcast
4:30 AM 41.0 °F - 39.2 °F 93% 30.24 in 4.3 mi Variable 1.2 mph - N/A   Overcast
5:00 AM 41.0 °F - 39.2 °F 93% 30.24 in 4.3 mi Calm Calm - N/A   Overcast
5:30 AM 41.0 °F - 39.2 °F 93% 30.24 in 4.3 mi Variable 1.2 mph - N/A   Overcast
6:00 AM 41.0 °F - 39.2 °F 93% 30.24 in 3.7 mi Variable 1.2 mph - N/A   Overcast
6:30 AM 41.0 °F 39.0 °F 39.2 °F 93% 30.24 in 2.5 mi Variable 3.5 mph - N/A   Overcast
7:00 AM 41.0 °F - 39.2 °F 93% 30.27 in - Variable 1.2 mph - N/A   Overcast
7:30 AM 42.8 °F 41.1 °F 39.2 °F 87% 30.27 in - Variable 3.5 mph - N/A   Mostly Cloudy
8:00 AM 42.8 °F - 39.2 °F 87% 30.27 in - Variable 2.3 mph - N/A   Mostly Cloudy
8:30 AM 42.8 °F 41.1 °F 41.0 °F 93% 30.27 in - Variable 3.5 mph - N/A   Mostly Cloudy
9:00 AM 44.6 °F 43.1 °F 41.0 °F 87% 30.27 in - Variable 3.5 mph - N/A   Mostly Cloudy
9:30 AM 44.6 °F - 41.0 °F 87% 30.30 in - Variable 2.3 mph - N/A   Mostly Cloudy
10:00 AM 46.4 °F 45.2 °F 39.2 °F 76% 30.30 in - Variable 3.5 mph - N/A   Mostly Cloudy
10:30 AM 46.4 °F 45.2 °F 39.2 °F 76% 30.30 in 2.5 mi Variable 3.5 mph - N/A   Mostly Cloudy
11:00 AM 48.2 °F - 39.2 °F 71% 30.30 in 3.1 mi Variable 2.3 mph - N/A   Haze
11:30 AM 48.2 °F - 39.2 °F 71% 30.30 in 3.7 mi Variable 2.3 mph - N/A   Mostly Cloudy
12:00 PM 48.2 °F - 37.4 °F 66% 30.30 in 4.3 mi Variable 3.5 mph - N/A   Mostly Cloudy
12:30 PM 50.0 °F - 37.4 °F 62% 30.27 in 4.3 mi WSW 4.6 mph - N/A   Overcast
1:00 PM 50.0 °F - 37.4 °F 62% 30.27 in 5.0 mi Variable 2.3 mph - N/A   Mostly Cloudy
1:30 PM 50.0 °F - 37.4 °F 62% 30.27 in 6.2 mi WSW 5.8 mph - N/A   Mostly Cloudy
2:00 PM 50.0 °F - 37.4 °F 62% 30.27 in 6.2 mi WSW 5.8 mph - N/A   Mostly Cloudy
2:30 PM 50.0 °F - 37.4 °F 62% 30.27 in 6.2 mi Variable 2.3 mph - N/A   Mostly Cloudy
3:00 PM 50.0 °F - 37.4 °F 62% 30.27 in 6.2 mi Variable 3.5 mph - N/A   Mostly Cloudy
3:30 PM 50.0 °F - 39.2 °F 66% 30.27 in 6.2 mi Variable 3.5 mph - N/A   Mostly Cloudy
4:00 PM 50.0 °F - 37.4 °F 62% 30.27 in 6.2 mi Variable 2.3 mph - N/A   Mostly Cloudy
4:30 PM 48.2 °F - 39.2 °F 71% 30.27 in 6.2 mi Variable 3.5 mph - N/A   Mostly Cloudy
5:00 PM 44.6 °F 40.7 °F 37.4 °F 76% 30.30 in 6.2 mi WNW 6.9 mph - N/A   Mostly Cloudy
5:30 PM 42.8 °F 39.3 °F 35.6 °F 76% 30.30 in - West 5.8 mph - N/A   Clear
6:00 PM 41.0 °F 38.0 °F 35.6 °F 81% 30.30 in - WNW 4.6 mph - N/A   Clear
6:30 PM 41.0 °F - 37.4 °F 87% 30.30 in - Variable 2.3 mph - N/A   Clear
7:00 PM 39.2 °F - 35.6 °F 87% 30.30 in - Variable 1.2 mph - N/A   Clear
7:30 PM 39.2 °F - 37.4 °F 93% 30.30 in - Calm Calm - N/A   Clear
8:00 PM 35.6 °F - 33.8 °F 93% 30.30 in - Calm Calm - N/A   Clear
8:30 PM 35.6 °F - 33.8 °F 93% 30.30 in 3.7 mi Variable 1.2 mph - N/A   Unknown
9:00 PM 35.6 °F - 33.8 °F 93% 30.30 in 2.5 mi Variable 2.3 mph - N/A   Mist
9:30 PM 33.8 °F - 32.0 °F 93% 30.30 in 2.5 mi Variable 1.2 mph - N/A   Mist
10:00 PM 33.8 °F - 32.0 °F 93% 30.33 in 1.9 mi Variable 2.3 mph - N/A Fog Fog
10:30 PM 32.0 °F - 30.2 °F 93% 30.30 in 1.9 mi Variable 2.3 mph - N/A Fog Fog
11:00 PM 33.8 °F - 32.0 °F 93% 30.33 in 1.9 mi Variable 1.2 mph - N/A   Mist
11:30 PM 32.0 °F - 30.2 °F 93% 30.33 in 1.6 mi Calm Calm - N/A   Mist